Dewpoint
33 33 32 31 30 29 27 25 25 24 24 24 24 24 25 26 26 25 24 22 20 21 20 19 20 18 17 16 16 15 14 13 12 11 11 10 10 11 12 13 12 10 11 12 12 11 11 12 13 13 14 11 8 8 7 8 9 7 8 7 6 8 10 9 9 12 9 -0 -1 -2 -3 -3 -3 -2 4 2 -4 -6 -1 -5 -5 -6 -7 -7 -7
31 31 31 31 30 29 29 28 27 26 24 24 23 23 23 24 23 23 24 24 23 23 22 21 20 19 17 16 15 15 14 13 13 12 11 11 11 11 12 11 10 9 11 12 11 10 11 11 12 13 13 12 11 9 8 6 7 5 5 6 5 6 9 8 9 10 12 6 -1 -2 -2 -3 3 -2 4 -0 4 -3 -4 -5 -5 -6 -6 -6 -7
30 30 30 30 30 29 29 29 28 27 26 25 25 25 24 24 24 25 23 23 23 22 21 21 19 19 18 16 16 16 15 15 14 13 12 12 12 12 11 11 10 9 10 11 11 10 10 10 11 12 10 9 10 8 8 8 7 7 7 6 7 7 6 8 9 8 13 8 6 5 1 1 -0 2 -1 0 2 -3 0 -1 -3 -4 -4 -5 -6
30 30 31 31 31 31 30 29 28 28 27 26 26 26 26 25 25 25 24 23 21 22 21 21 19 18 17 17 16 16 15 14 13 13 13 13 13 12 12 11 10 10 9 10 11 10 10 10 11 11 9 8 9 6 6 6 5 5 7 6 7 7 5 5 7 7 11 8 6 4 5 3 1 -1 -2 -3 -4 2 2 2 -2 2 -3 -3 -4
30 30 29 29 29 29 28 28 27 27 27 26 27 27 27 27 27 26 25 24 23 22 21 20 20 18 18 17 17 17 16 15 14 14 14 13 13 13 12 12 11 10 10 10 9 10 10 10 11 10 9 7 8 6 5 6 6 5 5 4 4 4 3 2 2 3 5 7 7 5 4 3 2 -2 -3 -4 -1 2 3 5 4 3 2 -2 -3
30 30 30 30 30 29 29 28 28 28 27 27 26 26 26 26 26 24 24 23 23 22 21 20 19 19 19 18 18 18 17 16 15 14 15 14 12 12 13 12 12 11 10 11 10 10 10 10 11 10 8 8 6 6 7 6 5 5 5 4 3 4 3 2 1 2 3 3 5 4 3 1 2 1 -3 -4 -1 0 2 3 6 6 4 2 2
29 30 30 29 30 30 30 29 29 28 28 27 27 27 27 26 25 24 23 22 22 21 20 20 19 19 19 19 18 18 17 16 15 15 15 14 12 12 12 12 12 11 11 10 10 10 9 10 10 10 9 8 9 8 7 5 5 6 6 6 4 3 1 1 1 1 1 2 2 3 3 3 3 0 -2 -4 -4 -3 1 1 1 3 3 1 0
29 28 29 29 29 29 29 28 28 28 28 28 27 27 27 26 25 25 23 22 22 21 20 19 19 18 18 18 18 17 17 16 15 14 14 13 12 12 12 12 11 10 10 10 10 10 9 10 10 11 9 9 9 8 7 4 4 4 4 4 3 3 1 0 -0 -1 -0 0 1 3 3 3 -0 -3 -3 -3 0 1 2 -0 -1 -2 -1 1 1
28 27 27 27 28 29 28 28 28 28 27 27 27 26 26 26 25 24 23 22 21 21 21 19 19 18 17 17 17 16 15 15 14 13 13 13 12 11 11 11 11 10 10 10 10 10 10 10 10 11 9 9 9 9 7 7 6 3 4 4 3 2 1 -0 -1 -1 -0 0 2 4 3 2 1 1 1 3 3 1 1 1 -0 -0 -1 -1 1
28 27 26 26 27 27 26 27 27 27 26 26 26 26 25 25 24 23 23 22 21 21 20 19 18 18 17 16 16 15 14 14 14 14 13 12 12 11 11 11 11 11 10 10 9 9 9 10 10 10 9 8 7 8 7 6 7 6 4 3 2 2 1 1 -0 -0 1 2 4 6 5 5 3 3 3 4 3 3 -0 1 -1 -1 -1 1 2
29 27 27 26 25 24 26 26 26 25 26 26 25 25 24 24 23 23 22 22 21 20 19 19 18 17 17 16 15 15 14 14 14 14 14 14 12 11 11 10 11 11 10 9 9 9 9 9 9 9 8 7 7 8 7 6 6 5 5 4 4 4 2 2 2 3 2 4 6 5 5 6 5 4 4 4 3 2 1 -0 -1 -1 -1 -2 -2
29 28 27 26 25 24 23 23 24 24 24 25 25 25 24 23 23 22 21 20 20 19 18 18 18 17 16 16 15 14 14 14 15 15 17 18 14 11 11 10 10 10 9 9 9 9 8 8 9 9 8 7 7 7 7 6 6 6 5 5 4 5 6 5 4 3 4 4 5 6 6 5 5 5 4 3 3 2 2 1 0 -0 -0 0 1
28 28 28 26 25 24 23 22 24 24 24 24 24 24 23 22 22 22 21 20 19 19 19 18 17 17 16 16 15 14 14 14 15 15 16 19 19 13 10 11 10 10 10 10 10 9 8 8 8 7 7 7 6 7 7 6 6 6 5 6 5 4 5 7 8 7 6 5 6 7 6 5 5 5 5 3 2 0 1 -1 0 1 2 2 2
28 29 29 27 26 24 24 24 24 24 24 24 23 23 22 22 21 21 20 20 19 19 18 17 17 16 16 15 14 14 14 14 15 15 15 18 19 17 12 11 11 11 10 10 9 9 9 8 6 6 6 6 6 7 7 6 5 5 5 5 5 5 5 6 6 7 7 6 6 6 7 6 4 5 6 4 1 -0 -1 -2 0 2 4 3 5
28 29 29 29 29 29 28 27 26 24 23 22 22 21 21 22 21 20 20 19 19 18 17 17 17 16 16 15 14 14 14 14 14 15 15 17 18 18 15 12 11 11 10 10 10 9 9 9 7 6 6 6 5 6 6 6 5 5 5 5 5 5 5 5 6 6 5 6 6 6 7 7 6 6 6 4 3 2 2 1 3 4 4 4 3
28 29 29 30 30 30 29 28 26 25 24 23 21 21 21 21 20 20 19 18 19 18 17 17 17 16 16 15 14 14 14 15 15 15 15 16 16 16 16 14 12 11 10 10 10 9 9 9 7 6 6 6 6 6 6 6 5 4 4 4 5 5 5 6 7 7 6 6 6 6 6 6 8 6 6 4 4 4 3 3 4 3 1 -2 -4
28 29 30 30 31 31 30 28 27 26 25 24 23 22 21 21 20 20 19 18 18 17 17 17 17 16 16 15 14 14 14 15 15 15 15 16 16 14 15 14 12 10 9 10 9 9 9 8 7 6 7 5 6 6 7 6 5 4 4 4 5 5 4 6 7 8 8 8 9 12 13 14 15 15 15 14 10 7 4 1 0 -1 -4 -7 -7
29 29 30 31 31 31 30 29 27 26 26 25 24 23 22 21 20 19 19 18 18 18 18 17 17 16 16 15 15 14 14 15 15 15 15 15 15 14 14 13 11 10 9 9 8 8 9 8 8 7 6 6 6 6 7 6 4 4 5 4 4 4 5 7 6 7 9 9 9 10 10 11 10 10 10 9 8 5 2 -0 -2 -4 -6 -6 -7
29 29 29 30 31 31 30 29 28 27 26 25 25 24 23 22 21 19 18 18 18 18 17 17 16 16 16 16 14 14 14 15 14 14 15 15 14 14 13 13 11 10 8 8 8 7 8 8 8 7 7 7 6 7 8 7 5 5 5 5 4 5 5 7 5 5 6 6 6 7 7 7 7 7 6 5 3 1 1 -0 -3 -5 -6 -6 -7
27 28 29 29 30 30 29 29 28 27 26 26 25 24 23 22 20 19 18 17 17 16 16 16 16 16 16 16 15 14 14 14 15 14 14 15 15 13 12 12 10 10 8 7 7 7 7 7 7 8 8 8 8 8 8 8 5 5 6 5 5 6 8 8 7 6 7 6 6 6 6 6 6 5 3 2 1 -0 -0 -1 -2 -3 -5 -6 -7
26 27 27 28 29 28 27 27 26 26 27 26 25 23 22 21 21 19 18 17 16 16 16 15 15 15 15 15 15 15 14 14 14 14 14 14 14 14 12 12 11 10 8 7 6 6 5 6 6 8 8 8 9 8 9 9 7 6 7 6 6 8 9 7 7 7 7 6 5 4 3 3 2 1 1 1 -1 -1 -1 -0 -1 -2 -4 -6 -8
26 27 27 27 25 24 24 24 24 23 24 25 24 23 23 22 20 19 17 16 16 16 16 14 14 14 13 14 14 14 13 13 14 13 13 14 14 14 12 13 12 10 8 7 7 6 6 5 6 8 8 9 9 9 10 10 9 7 8 9 9 10 8 8 7 5 5 4 3 2 1 1 -0 -0 -1 -2 -3 -4 -2 -2 -2 -2 -3 -4 -7
26 25 24 22 22 22 23 21 21 21 21 23 24 23 22 21 20 18 17 16 16 15 15 14 13 12 12 12 12 12 13 12 13 13 13 13 14 14 14 13 13 10 8 7 7 6 6 7 7 8 9 9 9 10 10 10 10 8 9 10 9 9 7 6 5 4 4 3 2 2 1 1 -1 -1 -2 -3 -4 -2 -4 -4 -3 -3 -4 -4 -4
21 20 20 21 21 21 21 20 20 20 21 22 23 22 21 20 19 17 16 15 14 14 13 13 12 12 11 11 11 11 12 12 12 12 12 13 13 14 14 14 13 11 9 8 8 7 7 8 7 9 9 9 10 10 10 10 10 10 10 10 9 8 7 6 5 4 4 3 3 2 1 1 -0 -1 -3 -4 -6 -3 -4 -3 -4 -3 -4 -6 -4
19 18 18 18 18 18 18 19 19 20 20 20 20 20 20 20 18 17 15 14 13 12 12 12 11 11 10 10 10 10 10 11 11 11 12 12 13 13 13 13 13 12 10 9 9 8 8 9 9 9 9 9 9 10 10 10 11 10 10 9 9 7 6 5 5 4 3 3 2 1 1 0 -0 -1 -2 -3 -5 -5 -5 -5 -4 -5 -5 -5 -5
17 16 16 16 17 17 17 17 18 18 18 19 20 20 19 18 17 16 15 13 12 12 12 11 10 10 10 10 10 10 10 10 10 10 11 11 12 12 13 13 13 12 11 10 10 9 9 9 10 10 9 9 8 8 8 9 10 10 10 9 8 7 6 5 5 4 3 2 1 1 0 -0 -3 -5 -4 -5 -6 -7 -6 -7 -8 -9 -7 -8 -8
15 14 14 14 15 16 15 15 15 16 17 18 18 18 18 17 16 15 14 12 12 11 11 11 10 9 9 9 9 9 9 9 9 9 9 9 10 10 11 12 13 13 11 10 10 9 9 9 9 9 9 9 9 9 9 9 9 9 8 8 7 7 6 5 5 4 2 2 1 0 -1 -3 -5 -8 -8 -7 -7 -7 -7 -9 -10 -10 -9 -8 -8
13 13 13 13 13 13 13 12 13 14 15 16 16 17 17 16 15 14 13 12 11 11 11 10 10 9 9 9 9 8 8 8 8 8 8 9 9 9 10 10 11 11 10 10 10 10 9 9 9 8 8 8 8 8 7 7 7 7 7 7 6 6 5 4 2 2 2 1 0 -1 -4 -6 -7 -7 -7 -7 -7 -8 -8 -10 -10 -10 -9 -9 -9
12 12 12 12 12 12 12 13 14 14 14 15 15 16 16 15 15 14 15 14 13 12 11 11 10 10 9 9 8 7 7 7 7 9 9 9 9 8 8 9 9 10 11 11 10 9 9 8 7 6 6 5 5 5 5 5 5 5 6 5 5 4 2 1 0 0 -0 -1 -2 -3 -5 -6 -7 -7 -8 -8 -8 -8 -8 -10 -10 -10 -9 -9 -10
11 11 11 11 11 11 12 13 13 13 13 13 13 14 12 15 14 13 13 13 13 13 13 12 11 10 9 9 9 8 7 7 9 10 10 10 10 10 10 10 10 10 11 10 9 7 6 5 4 4 4 4 3 3 2 2 2 2 3 3 2 1 0 -0 -1 -0 -1 -2 -3 -5 -6 -7 -8 -8 -8 -8 -8 -9 -10 -9 -10 -10 -10 -10 -9
9 9 9 10 11 11 11 11 11 12 12 12 12 12 12 12 12 12 13 12 12 13 13 12 12 11 10 9 10 10 10 10 10 10 10 9 9 9 10 10 11 11 10 9 7 6 4 3 3 3 3 3 2 2 2 2 2 2 2 1 1 -0 -1 -2 -2 -2 -4 -5 -5 -6 -7 -8 -8 -8 -8 -8 -9 -9 -10 -11 -11 -11 -10 -10 -10
8 8 9 10 10 11 10 10 10 10 10 11 10 11 10 10 10 11 11 11 11 11 12 12 12 11 11 10 9 8 9 9 9 9 9 9 9 9 9 10 11 11 10 9 6 5 4 3 3 3 3 3 3 3 2 2 3 2 2 0 -0 -1 -2 -2 -2 -3 -4 -5 -6 -8 -8 -8 -8 -8 -8 -9 -10 -10 -10 -11 -10 -11 -10 -10 -10
9 9 9 9 9 10 9 9 9 9 9 9 9 9 9 8 8 8 8 10 10 10 10 11 11 11 11 11 10 9 9 9 9 9 9 9 9 9 9 9 10 10 9 7 6 4 4 4 3 4 4 4 4 4 4 4 4 3 3 2 1 -1 -2 -1 -4 -4 -6 -6 -8 -8 -8 -8 -8 -9 -9 -10 -11 -11 -11 -11 -10 -10 -11 -10 -10
9 8 8 8 9 9 9 9 9 9 9 9 9 8 8 8 8 8 7 6 7 8 9 10 10 11 10 10 10 9 10 10 9 9 9 9 9 9 8 8 10 10 8 6 5 4 4 4 4 4 4 4 4 4 4 4 4 4 3 2 2 0 -3 -4 -6 -7 -8 -9 -9 -9 -8 -8 -9 -9 -9 -10 -10 -11 -12 -12 -11 -11 -11 -11 -10
8 8 8 8 8 8 8 8 8 8 8 8 7 8 7 8 7 7 6 6 5 5 5 7 9 9 9 10 9 10 10 10 9 9 9 9 8 8 8 7 8 8 7 6 5 4 4 4 4 4 4 4 4 4 4 5 4 3 2 1 -0 -3 -6 -9 -9 -8 -9 -9 -9 -8 -8 -8 -8 -9 -10 -10 -11 -12 -12 -11 -11 -11 -10 -9 -10
7 6 7 8 8 8 8 8 8 8 7 7 7 7 7 7 6 6 6 6 6 5 5 6 7 9 9 9 10 9 9 9 9 9 9 8 8 8 5 4 5 6 5 5 4 4 4 4 4 4 5 5 4 4 5 4 3 2 1 -0 -2 -4 -6 -8 -10 -9 -8 -9 -8 -8 -8 -8 -9 -10 -10 -10 -10 -11 -12 -12 -12 -11 -10 -11 -12
6 5 5 6 7 7 8 8 8 7 7 7 7 7 6 6 6 6 6 5 5 5 5 6 6 7 8 8 9 9 10 10 9 9 8 8 8 7 4 3 3 4 4 4 4 4 3 3 4 4 4 4 5 4 4 3 2 1 -1 -2 -3 -5 -7 -8 -9 -10 -9 -10 -9 -8 -8 -9 -9 -9 -10 -11 -12 -12 -12 -12 -12 -12 -12 -13 -16
6 5 5 6 7 8 8 7 7 7 7 6 6 6 6 6 5 5 5 5 5 4 4 5 5 4 4 5 9 8 8 9 9 9 8 8 7 5 3 3 3 3 3 3 4 4 3 4 4 4 5 5 5 4 3 2 1 -1 -2 -4 -6 -7 -9 -11 -11 -10 -9 -9 -9 -9 -10 -9 -9 -10 -12 -12 -12 -12 -12 -13 -12 -9 -10 -12 -16
5 6 6 6 6 7 7 7 7 6 6 6 6 5 5 5 5 4 4 4 4 4 4 4 4 4 4 6 6 8 8 7 6 5 5 5 5 4 3 2 2 2 2 3 3 3 3 4 4 4 4 4 4 3 2 1 -1 -2 -4 -5 -7 -9 -11 -11 -10 -10 -11 -10 -10 -9 -9 -10 -10 -11 -12 -12 -12 -12 -12 -12 -12 -11 -12 -12 -13
5 4 4 5 6 7 7 7 7 6 6 5 5 5 5 4 4 4 4 4 4 3 3 4 4 4 5 6 6 6 5 5 5 5 4 4 3 3 3 2 2 2 2 2 3 3 3 3 4 4 4 3 2 1 0 -1 -2 -4 -6 -7 -8 -9 -9 -9 -9 -9 -9 -9 -9 -9 -10 -9 -10 -12 -12 -13 -13 -12 -12 -12 -11 -12 -12 -13 -14
5 4 4 5 6 7 6 6 6 6 6 6 5 5 5 4 4 4 4 4 4 3 4 4 4 5 6 6 7 7 5 4 5 4 4 3 3 3 3 2 2 2 2 2 2 3 3 3 3 3 3 2 1 -0 -1 -3 -4 -6 -7 -9 -10 -10 -9 -9 -9 -9 -8 -9 -9 -9 -10 -10 -11 -12 -13 -13 -13 -13 -13 -12 -12 -13 -13 -14 -16
4 4 4 5 7 7 6 6 6 6 6 6 5 5 5 5 4 4 4 4 4 3 3 3 4 5 6 7 7 7 5 4 4 4 4 4 3 3 3 3 3 3 2 2 3 3 3 3 3 2 1 0 -1 -2 -3 -4 -5 -6 -8 -9 -10 -10 -10 -10 -10 -9 -9 -10 -9 -9 -9 -11 -12 -13 -13 -12 -13 -13 -12 -10 -12 -12 -13 -15 -16
4 4 5 6 6 6 6 6 6 6 5 5 5 3 4 5 4 4 4 4 3 3 3 3 3 4 5 6 7 6 6 5 2 4 4 4 3 3 3 3 3 4 4 4 4 4 3 2 2 1 0 -0 -1 -3 -4 -4 -6 -7 -8 -9 -9 -9 -9 -10 -10 -11 -11 -11 -10 -11 -11 -11 -13 -13 -13 -14 -13 -12 -10 -11 -13 -13 -15 -15 -16
4 4 5 6 7 7 6 6 6 5 5 4 4 5 5 5 4 4 4 4 3 3 3 3 3 4 4 6 6 6 5 5 4 4 4 4 4 3 3 4 4 4 5 4 4 3 2 1 1 -0 -1 -2 -3 -3 -4 -5 -6 -7 -8 -9 -10 -10 -9 -9 -10 -10 -11 -11 -11 -11 -12 -13 -13 -13 -14 -14 -13 -13 -11 -12 -14 -15 -15 -15 -16
3 4 5 6 6 6 6 6 6 5 5 5 5 5 5 4 4 4 4 4 3 3 3 3 3 3 3 4 5 5 5 4 4 4 4 4 4 4 4 5 5 5 4 3 2 1 1 1 0 -2 -3 -4 -6 -6 -6 -7 -8 -8 -8 -8 -8 -10 -10 -9 -8 -9 -10 -9 -11 -11 -12 -13 -13 -13 -14 -13 -14 -12 -12 -12 -13 -17 -16 -17 -17
3 4 5 6 6 6 6 6 6 5 5 5 4 4 4 4 4 4 4 4 4 3 3 3 3 3 3 3 3 4 4 4 4 4 4 4 4 4 4 5 5 4 3 1 -0 -0 -0 -1 -2 -3 -4 -5 -7 -8 -8 -9 -9 -9 -8 -8 -9 -9 -9 -8 -9 -10 -11 -10 -10 -11 -12 -13 -13 -14 -14 -13 -13 -12 -12 -13 -14 -16 -16 -17 -17
3 4 5 6 6 6 6 6 5 5 5 5 5 4 4 4 4 4 4 4 4 3 3 3 3 3 2 3 3 3 4 3 4 4 4 5 5 5 5 5 3 3 2 0 -1 -2 -2 -3 -3 -4 -5 -6 -8 -8 -9 -10 -10 -11 -11 -11 -10 -10 -11 -11 -11 -11 -11 -11 -11 -12 -12 -13 -13 -14 -15 -15 -13 -12 -14 -15 -16 -16 -17 -17 -17
3 4 5 6 6 5 6 6 5 4 5 4 4 4 4 4 4 4 4 4 4 4 3 3 3 3 2 2 2 2 3 3 4 3 4 4 5 4 4 3 3 2 1 -1 -2 -3 -4 -4 -5 -5 -6 -7 -8 -9 -9 -10 -10 -11 -11 -12 -11 -11 -11 -14 -12 -12 -12 -13 -12 -12 -12 -12 -11 -12 -13 -13 -13 -13 -14 -15 -16 -16 -17 -18 -18
3 3 4 4 5 5 5 5 5 5 5 4 4 4 4 4 4 4 4 4 4 4 4 3 3 3 3 2 2 2 2 2 3 4 4 4 4 4 3 2 0 1 -0 -1 -2 -4 -4 -5 -6 -7 -6 -7 -7 -8 -9 -9 -10 -11 -11 -11 -12 -14 -15 -15 -14 -12 -14 -13 -13 -13 -12 -11 -12 -13 -14 -14 -14 -14 -15 -15 -16 -17 -17 -17 -18
2 3 3 4 4 4 5 5 5 5 5 5 4 4 4 4 4 4 4 4 4 4 4 4 4 4 3 3 2 2 2 2 2 3 4 4 4 3 2 1 0 -0 -1 -1 -2 -4 -5 -5 -6 -7 -8 -7 -8 -8 -9 -10 -10 -11 -11 -11 -14 -15 -16 -16 -16 -16 -14 -13 -12 -12 -12 -12 -12 -12 -11 -13 -14 -15 -16 -17 -17 -18 -18 -18 -18
2 2 2 3 3 4 4 4 4 4 5 5 4 4 4 4 4 4 4 4 4 4 4 4 4 4 4 4 2 3 3 3 2 3 3 3 3 2 1 0 -1 -1 -2 -2 -4 -5 -6 -7 -8 -8 -8 -9 -9 -9 -9 -10 -10 -11 -12 -14 -15 -16 -16 -16 -16 -17 -16 -15 -12 -13 -13 -12 -13 -13 -12 -13 -14 -16 -17 -18 -18 -18 -18 -18 -18